Regional Weather Roundup
Issued by NWS

Home | Current Version | Previous Version | Text Only | Print | Product List | Glossary On
Versions: 1 2 3 4 5 6 7 8 9 10 11 12 13 14 15 16 17 18 19 20 21 22 23 24 25 26 27 28 29 30 31 32 33 34 35 36 37 38 39 40 41 42 43 44 45 46 47 48 49 50
000
ASUS42 KTBW 232018
RWRFL
FLORIDA REGIONAL WEATHER ROUNDUP
NATIONAL WEATHER SERVICE TAMPA BAY RUSKIN FL
400 PM EDT SAT SEP 23 2017

NOTE: "FAIR" INDICATES FEW OR NO CLOUDS BELOW 12,000 FEET WITH NO
SIGNIFICANT WEATHER AND/OR OBSTRUCTIONS TO VISIBILITY.

FLZ001>010-012>015-112-114-115-232100-
PANHANDLE FLORIDA

CITY           SKY/WX    TMP DP  RH WIND       PRES   REMARKS
PENSACOLA      MOSUNNY   90  68  48 SE10      29.92F
PENSACOLA NAS  MOSUNNY   88  64  44 SE8       29.92F
MILTON NAS     SUNNY     87  66  49 NE8       29.92
CRESTVIEW      MOSUNNY   91  66  43 E9        29.94F
DUKE FIELD     FAIR      90  65  44 E9        29.92F
VALPARAISO     MOSUNNY   91  63  39 E9G18     29.91F
MARY ESTHER    MOSUNNY   89  59  35 E13       29.90F
PANAMA CITY    FAIR      91  65  41 NE8       29.90F
TYNDALL AFB    SUNNY     87  68  51 E9        29.91F
APALACHICOLA   SUNNY     86  72  62 SE13      29.92F

STATION/POSITION SKY/WX   TEMP    WIND        PRES    WAVE   SWELL
                          AIR SEA DIR/SP/G            HT/PER HT/PER
                          (F)     (DEG/KT/KT) (MB)    (FT/S) (FT/S)
30.1N   87.6W              81 84   80/ 10/ 14 1013.1F   2/ 4
29.2N   88.2W              82 84   70/ 14/ 16 1013.0
28.8N   86.0W              81 83   70/ 14/ 16 1012.3F   4/ 6
PANAMA CITY BEAC           87     100/  5/ 12 1013.3F
TOWER C                    80      60/ 13/ 14 1013.5F
28.5N   84.5W              81 83   60/ 12/ 14 1011.8F   2/ 5

$$
FLZ011-016>038-118-127-128-134-139-239-232100-
NORTH FLORIDA

CITY           SKY/WX    TMP DP  RH WIND       PRES   REMARKS
MARIANNA       MOSUNNY   89  67  47 NE14      29.93F
TALLAHASSEE    MOSUNNY   90  67  46 NE13      29.92F
PERRY          MOSUNNY   91  68  46 NE8       29.91F HX  95
LIVE OAK       SUNNY     82  73  74 NE5       29.93F
CROSS CITY     LGT RAIN  77  72  83 NE9       29.95F
LAKE CITY      PTSUNNY   82  72  69 N7        29.92F
GAINESVILLE    MOSUNNY   84  72  67 NE16      29.93F
WILLISTON      SUNNY     88  75  66 NE8G17    29.89F HX  97
PALATKA        FAIR      82  75  78 NE10      29.92F
MAYPORT NAS    PTSUNNY   83  76  79 NE15      29.94S
JACKSONVILLE   PTSUNNY   82  73  74 NE15      29.94S
JAX NAS        PTSUNNY   84  72  67 N13       29.94S
JAX CECIL      MOSUNNY   84  70  61 E10G18    29.93F
FERNANDINA BEA FAIR      82  72  69 MISG      29.94S
ST AUGUSTINE   CLOUDY    82  75  78 NE15      29.93F
PALM COAST     SUNNY    N/A N/A N/A E12       29.91F

STATION/POSITION SKY/WX   TEMP    WIND        PRES    WAVE   SWELL
                          AIR SEA DIR/SP/G            HT/PER HT/PER
                          (F)     (DEG/KT/KT) (MB)    (FT/S) (FT/S)
SHELL POINT      NOT AVBL
KEATON BEACH               87      40/  6/  9 1012.1F
CEDAR KEY                  85      60/ 16/ 17 1012.1F
FERNANDINA                 83 83   30/  7/ 13 1015.0F
30.7N   81.3W                 82                N/A     5/14   3/14
MAYPORT                    81 82   50/ 13/ 15 1014.6F
31.4N   80.9W              80 81   60/ 17/ 19 1014.2F   5/14   3/14
ST AUGUSTINE               81 83   40/ 17/ 18 1013.3F

$$
FLZ040-043>046-052-053-057-058-063-144-232100-
INTERIOR CENTRAL FLORIDA

CITY           SKY/WX    TMP DP  RH WIND       PRES   REMARKS
OCALA          MOSUNNY   86  71  60 VRB7G16   29.89F
THE VILLAGES     N/A     79  75  89 MISG      29.80F
LEESBURG       CLOUDY    79  72  79 SE10      29.90S THUNDER
SANFORD        PTSUNNY   87  70  56 E17       29.88F
ORLANDO EXEC   PTSUNNY   84  73  69 NE8       29.88F
ORLANDO INTL   PTSUNNY   84  75  74 NE10      29.87F THUNDER
KISSIMMEE      HVY RAIN  79  73  83 E13       29.90R FOG
WINTER HAVEN   SUNNY     88  67  49 E12       29.87F
LAKELAND       PTSUNNY   88  72  58 E12G17    29.86F
BARTOW         PTSUNNY  N/A N/A N/A MISG        N/A
SEBRING        FAIR      80  71  74 E6        29.85F
OKEECHOBEE     PTSUNNY   86  72  62 NE3       29.83F

$$
FLZ041-047-054-059-064-141-147-232100-
EAST CENTRAL FLORIDA

CITY           SKY/WX    TMP DP  RH WIND       PRES   REMARKS
ORMOND BEACH   MOSUNNY   84  72  65 E12G17    29.90F
DAYTONA BEACH  PTSUNNY   86  72  62 NE15G24   29.89F
DELAND         CLOUDY    84  70  61 E16       29.89F
NEW SMYRNA BEA MOSUNNY   86  72  62 NE15      29.90F
JFK SPACE CTR  CLOUDY    83  77  80 E12       29.86F
TITUSVILLE     PTSUNNY   84  75  74 E17G23    29.88F
CAPE CANAVERAL CLOUDY    83  75  77 NE13      29.85F
PATRICK AFB    CLOUDY    77  73  88 E16       29.87F
MELBOURNE      CLOUDY    79  73  82 NE17G25   29.88S
VERO BEACH     CLOUDY    79  74  84 N8        29.86S
FT PIERCE      RAIN      77  77 100 E5        29.85S FOG
STUART         MOSUNNY   88  77  70 E12G17    29.84F HX 100

STATION/POSITION SKY/WX   TEMP    WIND        PRES    WAVE   SWELL
                          AIR SEA DIR/SP/G            HT/PER HT/PER
                          (F)     (DEG/KT/KT) (MB)    (FT/S) (FT/S)
28.5N   80.2W              82 83   60/ 14/ 17 1012.3F   7/14   5/14
28.9N   78.5W                      40/ 16/ 21 1012.7F  14/15  13/15
TRIDENT PIER               82 83   30/  6/  9 1013.0
28.4N   80.5W                 83                N/A     4/15   3/15
27.5N   80.2W                 83                N/A     4/12   2/12

$$
FLZ050-056-061-142-242-148-248-149-249-151-251-155-255-
160-260-232100-
WEST CENTRAL FLORIDA

CITY           SKY/WX    TMP DP  RH WIND       PRES   REMARKS
CRYSTAL RIVER  FAIR      90  68  48 E8        29.86F
INVERNESS      CLOUDY    84  73  70 NE15G22   29.88S
BROOKSVILLE    LGT RAIN  84  71  65 NE7       29.86F
CLEARWATER AIR FAIR      88  68  51 E6        29.84F
ST PETE CLEARW MOSUNNY   93  70  46 NE7       29.84F HX  99
TAMPA INTL     MOSUNNY   91  67  44 E7        29.85F
TAMPA EXEC     MOSUNNY   91  72  52 E9        29.85F HX  98
PLANT CITY     MOSUNNY   88  70  55 E6        29.86F
MACDILL AFB    MOSUNNY   90  75  62 E9        29.84F HX 100
PETER O KNIGHT LGT RAIN  84  72  65 E7        29.85F
ST PETERSBURG  SUNNY     89  74  60 SE9       29.83F HX  98
SARASOTA       CLOUDY    88  73  61 NE8       29.81F HX  95
VENICE         FAIR      88  73  62 NE9       29.83F HX  96

STATION/POSITION SKY/WX   TEMP    WIND        PRES    WAVE   SWELL
                          AIR SEA DIR/SP/G            HT/PER HT/PER
                          (F)     (DEG/KT/KT) (MB)    (FT/S) (FT/S)
27.3N   84.2W                 83                N/A     3/ 5
CLEARWATER BEACH           89 84   10/  6/  9 1010.7F
MIDDLE TAMPA BAY           85      60/  5/  9 1010.8F
VENICE                     85 85   40/  9/ 12 1010.9F

$$
FLZ066-069-070-075>078-162-262-165-265-232100-
SOUTHWEST FLORIDA AND KEYS

CITY           SKY/WX    TMP DP  RH WIND       PRES   REMARKS
PUNTA GORDA    MOSUNNY   89  72  56 E9        29.83F HX  96
FT MYERS       MOSUNNY   83  75  77 E9        29.81F
SOUTHWEST INTL MOSUNNY   83  76  79 NW6       29.82F THUNDER
NAPLES         PTSUNNY   87  73  62 N7        29.80F
IMMOKALEE      FAIR      84  75  74 E9        29.83S
MARATHON       CLOUDY    87  75  67 NE10      29.80F HX  96
KEY WEST NAS   MOSUNNY  102  77  45 MISG      29.81F HX 118
KEY WEST INTL  SUNNY     89  76  65 N8        29.81F HX 100

STATION/POSITION SKY/WX   TEMP    WIND        PRES    WAVE   SWELL
                          AIR SEA DIR/SP/G            HT/PER HT/PER
                          (F)     (DEG/KT/KT) (MB)    (FT/S) (FT/S)
NAPLES                        86   50/  5/  7 1009.2F
DRY TORTUGAS               84      60/ 11/ 12 1009.7F
SAND KEY                   83                 1010.1F
MOLASSES REEF                      10/  6       N/A

$$
FLZ067-068-071>074-168-172>174-232100-
SOUTHEAST FLORIDA

CITY           SKY/WX    TMP DP  RH WIND       PRES   REMARKS
W PALM BEACH   PTSUNNY   87  76  69 N10       29.81F HX  97
BOCA RATON     MOSUNNY  N/A N/A N/A NE13      29.80F
FT LAUDER-EXEC MOSUNNY   87  74  64 NE7       29.79F HX  95
FT LAUDERDALE  PTSUNNY   88  77  69 E12       29.79F HX 100
POMPANO BEACH  PTSUNNY   85  75  72 NE10      29.80F
PEMBROKE PINES CLOUDY    90  75  61 NE7       29.81F HX 100
OPA LOCKA      RAIN      86  76  71 E5        29.80F HX  96
MIAMI          RAIN      85  75  72 NE13G18   29.80F
WEST KENDALL   MOSUNNY   91  73  55 N9        29.79F HX  99
HOMESTEAD      MOSUNNY   86  79  79 E5        29.79F HX  99

STATION/POSITION SKY/WX   TEMP    WIND        PRES    WAVE   SWELL
                          AIR SEA DIR/SP/G            HT/PER HT/PER
                          (F)     (DEG/KT/KT) (MB)    (FT/S) (FT/S)
PORT EVERGLADES            85      40/  7/ 13 1009.1F
VIRGINIA KEY               85 86   40/ 10/ 13 1008.7F
LAKE WORTH                 83 85   30/ 12/ 16 1010.4F
FOWEY ROCKS                83 85   10/ 12/ 13 1009.6F
SETTLEMENT POINT           84      30/ 17/ 19 1009.6F

$$




USA.gov is the U.S. government's official web portal to all federal, state and local government web resources and services.